N6ABM Weather Reports


time (UTC)temp
C
wind
direction
speed
KPH
gust
KPH
rain 1hr
cm
rain 24hr
cm
rain mn
cm
humidity
%
barometer
mb
20260502152016 27 3 16.1 32.2 0.00 0.00 0.00 24 1014.6
20260502151516 27 45 14.5 25.7 0.00 0.00 0.00 24 1014.6
20260502151017 27 100 14.5 33.8 0.00 0.00 0.00 24 1014.6
20260502150516 26 6 14.5 33.8 0.00 0.00 0.00 24 1014.6
20260502130516 18 35 0.0 0.0 0.00 0.00 0.00 34 1013.3
20260502123516 18 83 0.0 0.0 0.00 0.00 0.00 33 1012.9
20260502123017 18 84 0.0 0.0 0.00 0.00 0.00 33 1012.8
20260502122516 18 28 0.0 0.0 0.00 0.00 0.00 33 1012.8
20260502122017 18 28 0.0 0.0 0.00 0.00 0.00 32 1012.7
20260502121517 18 44 0.0 0.0 0.00 0.00 0.00 32 1012.7
20260502121016 18 44 0.0 0.0 0.00 0.00 0.00 32 1012.7
20260502120516 18 44 0.0 0.0 0.00 0.00 0.00 32 1012.7
20260502115517 18 34 3.2 6.4 0.00 0.00 0.00 30 1012.6
20260502115017 18 30 1.6 4.8 0.00 0.00 0.00 31 1012.6
20260502114516 18 44 0.0 3.2 0.00 0.00 0.00 32 1012.6
20260502114017 18 56 0.0 3.2 0.00 0.00 0.00 31 1012.6
20260502113517 19 57 1.6 4.8 0.00 0.00 0.00 32 1012.5
20260502113016 19 59 1.6 4.8 0.00 0.00 0.00 31 1012.5
20260502112516 19 54 0.0 3.2 0.00 0.00 0.00 32 1012.5
20260502112017 19 56 0.0 3.2 0.00 0.00 0.00 31 1012.5
20260502111517 20 20 0.0 0.0 0.00 0.00 0.00 31 1012.5
20260502111016 20 20 0.0 0.0 0.00 0.00 0.00 31 1012.4
20260502110517 20 19 0.0 0.0 0.00 0.00 0.00 32 1012.4
20260502110016 20 19 0.0 0.0 0.00 0.00 0.00 31 1012.4
20260502105516 20 20 0.0 0.0 0.00 0.00 0.00 30 1012.3
20260502105018 20 19 0.0 0.0 0.00 0.00 0.00 29 1012.3
20260502104517 20 20 0.0 0.0 0.00 0.00 0.00 30 1012.2
20260502104016 20 19 0.0 0.0 0.00 0.00 0.00 29 1012.2
20260502103517 20 19 0.0 0.0 0.00 0.00 0.00 29 1012.2
20260502103016 21 19 0.0 0.0 0.00 0.00 0.00 29 1012.1
20260502102516 21 20 0.0 0.0 0.00 0.00 0.00 28 1012.1
20260502102017 21 19 0.0 0.0 0.00 0.00 0.00 28 1012.1
20260502101517 21 21 0.0 4.8 0.00 0.00 0.00 27 1012.0
20260502101017 21 19 1.6 4.8 0.00 0.00 0.00 27 1012.0
20260502100517 21 39 3.2 6.4 0.00 0.00 0.00 27 1012.0
20260502091516 22 46 9.7 16.1 0.00 0.00 0.00 24 1011.7
20260502091017 22 43 12.9 17.7 0.00 0.00 0.00 24 1011.7
20260502090517 22 55 14.5 19.3 0.00 0.00 0.00 23 1011.8
20260502071517 21 60 0.0 0.0 0.00 0.00 0.00 27 1011.1
20260502071016 21 61 0.0 0.0 0.00 0.00 0.00 27 1011.1
20260502070516 22 58 0.0 0.0 0.00 0.00 0.00 26 1011.1
20260502070017 22 57 1.6 9.7 0.00 0.00 0.00 25 1011.0
20260502065517 22 60 3.2 9.7 0.00 0.00 0.00 26 1011.0
20260502065017 22 66 3.2 9.7 0.00 0.00 0.00 27 1011.0
20260502064516 22 65 1.6 6.4 0.00 0.00 0.00 27 1011.0
20260502064017 22 132 3.2 14.5 0.00 0.00 0.00 25 1011.0
20260502063516 22 101 4.8 14.5 0.00 0.00 0.00 25 1010.9
20260502063017 22 45 1.6 9.7 0.00 0.00 0.00 27 1010.9
20260502062517 22 51 0.0 3.2 0.00 0.00 0.00 28 1010.8
20260502062017 22 11 0.0 0.0 0.00 0.00 0.00 28 1010.8
20260502061517 22 13 0.0 0.0 0.00 0.00 0.00 28 1010.8
20260502061016 22 15 0.0 0.0 0.00 0.00 0.00 27 1010.7
20260502060516 22 14 0.0 0.0 0.00 0.00 0.00 26 1010.7
20260502060016 22 15 0.0 0.0 0.00 0.00 0.00 26 1010.6
20260502055516 22 18 0.0 0.0 0.00 0.00 0.00 26 1010.6
20260502055017 23 22 0.0 0.0 0.00 0.00 0.00 25 1010.6
20260502054516 23 16 0.0 0.0 0.00 0.00 0.00 26 1010.5
20260502054016 23 13 0.0 0.0 0.00 0.00 0.00 25 1010.5
20260502053517 23 14 0.0 0.0 0.00 0.00 0.00 25 1010.5
20260502053017 23 15 0.0 0.0 0.00 0.00 0.00 25 1010.4
20260502052517 23 12 0.0 0.0 0.00 0.00 0.00 25 1010.4
20260502052017 23 12 0.0 0.0 0.00 0.00 0.00 26 1010.4
20260502051517 23 15 0.0 0.0 0.00 0.00 0.00 25 1010.3
20260502051016 24 16 0.0 0.0 0.00 0.00 0.00 24 1010.3
20260502050517 24 13 0.0 0.0 0.00 0.00 0.00 24 1010.3
20260502050016 24 11 0.0 0.0 0.00 0.00 0.00 23 1010.3
20260502045517 24 40 0.0 0.0 0.00 0.00 0.00 22 1010.3
20260502045017 25 44 0.0 0.0 0.00 0.00 0.00 22 1010.2
20260502044516 25 37 0.0 0.0 0.00 0.00 0.00 22 1010.2
20260502044016 25 60 0.0 0.0 0.00 0.00 0.00 22 1010.2
20260502043516 25 61 0.0 0.0 0.00 0.00 0.00 23 1010.1
20260502043016 25 56 0.0 0.0 0.00 0.00 0.00 23 1010.1
20260502042516 25 61 0.0 0.0 0.00 0.00 0.00 22 1010.0
20260502042017 25 78 0.0 0.0 0.00 0.00 0.00 23 1010.0
20260502041517 25 56 1.6 8.0 0.00 0.00 0.00 23 1009.9
20260502041016 26 74 3.2 8.0 0.00 0.00 0.00 22 1009.9
20260502040516 26 64 1.6 6.4 0.00 0.00 0.00 22 1009.8
20260502040017 26 57 0.0 6.4 0.00 0.00 0.00 22 1009.8
20260502035517 26 47 1.6 8.0 0.00 0.00 0.00 23 1009.7
20260502035017 26 70 1.6 8.0 0.00 0.00 0.00 23 1009.7
20260502034516 26 70 3.2 11.3 0.00 0.00 0.00 23 1009.6
20260502034017 26 70 4.8 11.3 0.00 0.00 0.00 22 1009.6
20260502033517 26 83 3.2 6.4 0.00 0.00 0.00 22 1009.5
20260502033017 26 83 3.2 6.4 0.00 0.00 0.00 21 1009.4
20260502032517 27 95 3.2 9.7 0.00 0.00 0.00 20 1009.4
20260502032017 27 97 3.2 9.7 0.00 0.00 0.00 21 1009.3
20260502031517 27 50 3.2 8.0 0.00 0.00 0.00 22 1009.2
20260502031017 27 102 3.2 8.0 0.00 0.00 0.00 22 1009.2
20260502030517 27 70 3.2 11.3 0.00 0.00 0.00 21 1009.1
20260502030016 27 74 6.4 12.9 0.00 0.00 0.00 20 1009.1
20260502025516 27 79 4.8 12.9 0.00 0.00 0.00 20 1009.0
20260502025016 28 109 3.2 9.7 0.00 0.00 0.00 20 1009.0
20260502024516 28 77 4.8 9.7 0.00 0.00 0.00 20 1008.9
20260502024016 28 96 6.4 9.7 0.00 0.00 0.00 19 1008.9
20260502023516 28 93 6.4 14.5 0.00 0.00 0.00 19 1008.8
20260502023017 28 108 8.0 14.5 0.00 0.00 0.00 18 1008.8
20260502022517 28 104 8.0 14.5 0.00 0.00 0.00 18 1008.7
20260502022016 28 89 9.7 20.9 0.00 0.00 0.00 18 1008.7
20260502021516 28 60 12.9 20.9 0.00 0.00 0.00 18 1008.7
20260502021017 28 88 11.3 19.3 0.00 0.00 0.00 18 1008.6
20260502020517 29 94 11.3 19.3 0.00 0.00 0.00 18 1008.6
20260502020016 29 116 11.3 19.3 0.00 0.00 0.00 18 1008.6
20260502015516 29 84 6.4 16.1 0.00 0.00 0.00 18 1008.6
20260502015017 29 59 6.4 16.1 0.00 0.00 0.00 19 1008.6
20260502014517 30 99 8.0 16.1 0.00 0.00 0.00 18 1008.6
20260502014016 30 87 8.0 12.9 0.00 0.00 0.00 18 1008.6
20260502013517 30 117 9.7 20.9 0.00 0.00 0.00 18 1008.6
20260502013016 30 119 12.9 20.9 0.00 0.00 0.00 17 1008.6
20260502012517 30 91 9.7 19.3 0.00 0.00 0.00 17 1008.6
20260502012017 30 113 6.4 14.5 0.00 0.00 0.00 18 1008.6
20260502011517 30 199 6.4 17.7 0.00 0.00 0.00 17 1008.6
20260502011016 30 130 8.0 17.7 0.00 0.00 0.00 17 1008.6
20260502010516 30 144 9.7 19.3 0.00 0.00 0.00 17 1008.7
20260502010017 31 182 11.3 22.5 0.00 0.00 0.00 18 1008.7
20260502005517 31 117 9.7 22.5 0.00 0.00 0.00 17 1008.7
20260502005016 31 126 8.0 17.7 0.00 0.00 0.00 17 1008.7
20260502004516 31 146 9.7 17.7 0.00 0.00 0.00 17 1008.7
20260502004017 31 219 12.9 22.5 0.00 0.00 0.00 17 1008.7
20260502003517 31 120 12.9 22.5 0.00 0.00 0.00 17 1008.7
20260502003017 31 154 12.9 22.5 0.00 0.00 0.00 18 1008.7
20260502002516 31 78 16.1 25.7 0.00 0.00 0.00 18 1008.7
20260502002017 31 71 11.3 25.7 0.00 0.00 0.00 18 1008.8
20260502001516 31 172 4.8 11.3 0.00 0.00 0.00 18 1008.8
20260502001017 31 79 8.0 24.1 0.00 0.00 0.00 18 1008.8
20260502000517 31 215 9.7 27.4 0.00 0.00 0.00 17 1008.9
20260502000017 31 72 9.7 27.4 0.00 0.00 0.00 18 1008.9
20260501235517 31 192 9.7 20.9 0.00 0.00 0.00 17 1008.9
20260501235016 31 214 8.0 19.3 0.00 0.00 0.00 18 1009.0
20260501234516 32 110 12.9 29.0 0.00 0.00 0.00 18 1009.0
20260501234016 32 91 19.3 29.0 0.00 0.00 0.00 17 1009.0
20260501233517 32 120 16.1 27.4 0.00 0.00 0.00 18 1009.0
20260501233017 32 113 12.9 29.0 0.00 0.00 0.00 18 1009.0
20260501232516 32 82 14.5 30.6 0.00 0.00 0.00 18 1009.1
20260501232016 32 135 17.7 30.6 0.00 0.00 0.00 18 1009.1
20260501231517 32 118 14.5 27.4 0.00 0.00 0.00 18 1009.1
20260501231017 32 45 9.7 25.7 0.00 0.00 0.00 17 1009.2
20260501230517 32 157 12.9 30.6 0.00 0.00 0.00 18 1009.2
20260501230016 32 96 16.1 30.6 0.00 0.00 0.00 17 1009.3
20260501225517 32 108 9.7 22.5 0.00 0.00 0.00 17 1009.4
20260501225017 32 62 6.4 19.3 0.00 0.00 0.00 17 1009.5
20260501224517 32 136 9.7 20.9 0.00 0.00 0.00 18 1009.5
20260501224016 32 111 14.5 29.0 0.00 0.00 0.00 17 1009.6
20260501223516 32 131 14.5 32.2 0.00 0.00 0.00 16 1009.7
20260501223017 32 107 12.9 32.2 0.00 0.00 0.00 16 1009.8
20260501222517 32 128 9.7 22.5 0.00 0.00 0.00 16 1009.9
20260501222017 32 129 9.7 22.5 0.00 0.00 0.00 17 1009.9
20260501221516 32 56 14.5 24.1 0.00 0.00 0.00 16 1010.0
20260501221016 32 133 16.1 27.4 0.00 0.00 0.00 16 1010.0
20260501220516 32 154 11.3 27.4 0.00 0.00 0.00 17 1010.1
20260501220017 32 186 6.4 22.5 0.00 0.00 0.00 17 1010.2
20260501215517 32 161 6.4 17.7 0.00 0.00 0.00 17 1010.3
20260501215017 32 31 6.4 29.0 0.00 0.00 0.00 19 1010.4
20260501214517 32 187 6.4 29.0 0.00 0.00 0.00 19 1010.4
20260501214016 32 93 8.0 22.5 0.00 0.00 0.00 19 1010.5
20260501213517 32 150 6.4 22.5 0.00 0.00 0.00 19 1010.6
20260501213016 32 89 9.7 29.0 0.00 0.00 0.00 20 1010.7
20260501212516 32 116 12.9 29.0 0.00 0.00 0.00 17 1010.7
20260501212017 32 142 6.4 24.1 0.00 0.00 0.00 19 1010.8
20260501211516 32 102 6.4 20.9 0.00 0.00 0.00 19 1010.9
20260501211017 32 155 9.7 20.9 0.00 0.00 0.00 19 1010.9
20260501210517 32 203 14.5 32.2 0.00 0.00 0.00 18 1011.0
20260501210017 32 54 12.9 32.2 0.00 0.00 0.00 18 1011.0
20260501205516 32 82 8.0 20.9 0.00 0.00 0.00 19 1011.1
20260501205017 32 82 8.0 20.9 0.00 0.00 0.00 19 1011.2
20260501204517 32 48 6.4 16.1 0.00 0.00 0.00 19 1011.2
20260501204016 32 99 12.9 25.7 0.00 0.00 0.00 19 1011.2
20260501203517 32 104 16.1 25.7 0.00 0.00 0.00 18 1011.3
20260501203017 32 135 12.9 25.7 0.00 0.00 0.00 18 1011.3
20260501202517 31 116 8.0 20.9 0.00 0.00 0.00 19 1011.4
20260501202016 31 140 9.7 22.5 0.00 0.00 0.00 21 1011.4
20260501201516 31 209 8.0 22.5 0.00 0.00 0.00 19 1011.5
20260501201016 32 223 4.8 14.5 0.00 0.00 0.00 21 1011.5
20260501200516 31 116 3.2 12.9 0.00 0.00 0.00 20 1011.6
20260501200017 31 108 4.8 14.5 0.00 0.00 0.00 19 1011.7
20260501195517 31 59 6.4 14.5 0.00 0.00 0.00 21 1011.7
20260501195017 31 150 6.4 19.3 0.00 0.00 0.00 23 1011.8
20260501194516 31 150 6.4 19.3 0.00 0.00 0.00 24 1011.9
20260501194016 31 126 3.2 14.5 0.00 0.00 0.00 20 1012.0
20260501193517 31 111 3.2 14.5 0.00 0.00 0.00 21 1012.0
20260501193017 31 249 6.4 24.1 0.00 0.00 0.00 20 1012.1
20260501192517 31 77 9.7 29.0 0.00 0.00 0.00 20 1012.2
20260501192017 31 198 11.3 29.0 0.00 0.00 0.00 20 1012.2
20260501191517 31 172 8.0 17.7 0.00 0.00 0.00 20 1012.3
20260501191016 31 129 9.7 22.5 0.00 0.00 0.00 22 1012.4
20260501190017 31 78 8.0 20.9 0.00 0.00 0.00 22 1012.5
20260501185517 31 133 6.4 20.9 0.00 0.00 0.00 21 1012.6
20260501185017 31 128 6.4 20.9 0.00 0.00 0.00 22 1012.6
20260501184516 31 221 9.7 25.7 0.00 0.00 0.00 22 1012.7
20260501184017 31 188 12.9 25.7 0.00 0.00 0.00 21 1012.8
20260501183516 30 119 11.3 25.7 0.00 0.00 0.00 22 1012.9
20260501183016 30 112 8.0 16.1 0.00 0.00 0.00 22 1012.9
20260501182516 30 78 6.4 16.1 0.00 0.00 0.00 22 1013.0
20260501182016 30 252 8.0 16.1 0.00 0.00 0.00 23 1013.1
20260501181517 30 97 9.7 16.1 0.00 0.00 0.00 22 1013.1
20260501181017 30 127 9.7 16.1 0.00 0.00 0.00 22 1013.2
20260501180516 30 96 8.0 22.5 0.00 0.00 0.00 22 1013.2
20260501180017 30 129 6.4 22.5 0.00 0.00 0.00 23 1013.2
20260501175517 30 82 4.8 19.3 0.00 0.00 0.00 24 1013.3
20260501175017 30 81 4.8 19.3 0.00 0.00 0.00 23 1013.3
20260501174517 30 186 4.8 12.9 0.00 0.00 0.00 23 1013.4
20260501174016 30 134 6.4 19.3 0.00 0.00 0.00 23 1013.4
20260501173516 30 94 9.7 22.5 0.00 0.00 0.00 23 1013.4
20260501173017 30 80 9.7 22.5 0.00 0.00 0.00 23 1013.4
20260501172517 30 65 8.0 20.9 0.00 0.00 0.00 22 1013.4
20260501172017 30 133 6.4 16.1 0.00 0.00 0.00 23 1013.4
20260501171517 30 107 4.8 14.5 0.00 0.00 0.00 24 1013.4
20260501171016 30 229 3.2 14.5 0.00 0.00 0.00 24 1013.4
20260501170517 30 196 6.4 19.3 0.00 0.00 0.00 23 1013.4
20260501170017 30 119 8.0 19.3 0.00 0.00 0.00 22 1013.4
20260501165517 29 144 6.4 14.5 0.00 0.00 0.00 25 1013.4
20260501165016 29 124 8.0 14.5 0.00 0.00 0.00 24 1013.4
20260501164517 28 60 11.3 22.5 0.00 0.00 0.00 24 1013.4
20260501164017 28 176 11.3 22.5 0.00 0.00 0.00 25 1013.4
20260501163517 28 71 9.7 22.5 0.00 0.00 0.00 24 1013.4
20260501163017 28 130 9.7 22.5 0.00 0.00 0.00 25 1013.4
20260501162517 27 73 11.3 22.5 0.00 0.00 0.00 26 1013.4
20260501162016 27 106 11.3 20.9 0.00 0.00 0.00 25 1013.3
20260501161516 27 45 6.4 16.1 0.00 0.00 0.00 26 1013.3
20260501161017 26 130 3.2 14.5 0.00 0.00 0.00 28 1013.3
20260501160017 26 139 4.8 11.3 0.00 0.00 0.00 28 1013.2
20260501155517 26 218 3.2 9.7 0.00 0.00 0.00 29 1013.2
20260501155017 25 231 3.2 9.7 0.00 0.00 0.00 29 1013.2
20260501154517 25 125 3.2 8.0 0.00 0.00 0.00 30 1013.1
20260501154016 25 50 3.2 9.7 0.00 0.00 0.00 30 1013.1
20260501153516 25 96 3.2 9.7 0.00 0.00 0.00 30 1013.0
20260501153016 25 204 3.2 9.7 0.00 0.00 0.00 30 1013.0